[[{"header":{"parameterUnit":"m.s-1","parameterCategory":1,"la1":30.2991,"la2":30.254,"lo1":-89.0895,"lo2":-89.0444,"dy":0.0017,"dx":0.0017,"nx":28,"ny":28,"refTime":"2024-06-22T03:00:00:Z","depth":0,"parameterNumber":2,"parameterNumberName":"U-component_of_WINDS"},"data":[0,0,0,0,0,0,0,0,0,0,0,0,0,0,0,0,0,0,0,0,0,0,0,0,0,0,0,0,0,0,0,0,0,0,0,0,0,0,0,0,0,0,0,0,0,0,0,0,0,0,0,0,0,0,0,0,0,0,-2.2752,-2.2752,0,-2.268,-2.2679,-2.2678,-2.2573,-2.2571,-2.2569,-2.2567,-2.2494,-2.2494,-2.2493,0,0,0,0,0,0,0,0,0,0,0,0,0,-2.2804,-2.2803,-2.2752,-2.2751,-2.2751,-2.268,-2.2679,-2.2678,-2.2573,-2.2571,-2.2569,-2.2567,-2.2494,-2.2494,-2.2493,0,0,0,0,0,0,0,0,0,0,0,0,0,-2.2761,-2.2803,-2.2753,-2.269,-2.2683,-2.268,-2.2679,-2.2677,-2.2574,-2.2571,-2.2568,-2.2565,-2.2494,-2.2494,-2.2493,-2.2546,0,0,-2.2492,-2.2492,0,0,0,0,0,0,0,0,-2.2764,-2.2759,-2.27,-2.2694,-2.2687,-2.2632,-2.267,-2.2633,-2.2574,-2.2615,-2.2567,-2.2564,-2.2542,-2.2538,-2.253,-2.2542,-2.2539,-2.2492,-2.2492,-2.2492,-2.2492,0,0,0,0,0,0,0,-2.2767,-2.2762,-2.2724,-2.2699,-2.2691,-2.2666,-2.2657,-2.2662,-2.2595,-2.2611,-2.2604,-2.2596,-2.2538,-2.2531,-2.2528,-2.2538,-2.2492,-2.2492,-2.2492,-2.2491,-2.2592,-2.2595,0,0,0,0,0,0,-2.2779,-2.2765,-2.2726,-2.2721,-2.2719,-2.2668,-2.2657,-2.2653,-2.2595,-2.2583,-2.2599,-2.2592,-2.2533,-2.2528,-2.2525,-2.2583,-2.2492,-2.2491,-2.2491,-2.2589,-2.2593,-2.2596,0,0,0,0,0,0,-2.278,-2.2776,-2.2729,-2.2741,-2.2733,-2.267,-2.2665,-2.2653,-2.2645,-2.2585,-2.2573,-2.2603,-2.253,-2.2525,-2.2542,-2.2579,-2.2491,-2.2491,-2.2586,-2.259,-2.2595,-2.2701,0,0,0,0,0,0,-2.2782,-2.2777,-2.2796,-2.2742,-2.2733,-2.2747,-2.2667,-2.2653,-2.2645,-2.2635,-2.2586,-2.2575,-2.2528,-2.2543,-2.2542,-2.2577,-2.2491,-2.2582,-2.2588,-2.2593,-2.2694,-2.2708,-2.2721,0,0,0,0,0,-2.2784,-2.2828,-2.2797,-2.2793,-2.2754,-2.2749,-2.2743,-2.2687,-2.2648,-2.2667,-2.2629,-2.2577,-2.2576,-2.2546,-2.2543,-2.2579,-2.258,-2.2586,-2.2593,-2.2687,-2.2705,-2.272,0,0,0,0,0,0,-2.2887,-2.282,-2.2785,-2.2812,-2.2787,-2.2731,-2.2752,-2.2708,-2.2693,-2.2685,-2.2616,-2.2606,-2.2632,-2.2607,-2.2575,-2.2628,-2.257,-2.2576,-2.2643,-2.2659,-2.2673,-2.2678,-2.249,0,0,0,0,0,-2.2914,-2.2914,-2.2855,-2.2886,-2.2875,-2.2816,-2.2812,-2.2771,-2.2742,-2.2731,-2.2694,-2.2668,-2.2662,-2.266,-2.2651,-2.269,-2.2679,-2.2714,-2.2728,-2.2739,-2.2745,-2.2766,-2.2781,-2.2618,-2.2617,-2.2617,0,0,-2.2967,-2.293,-2.2935,-2.2905,-2.2881,-2.2884,-2.2808,-2.2813,-2.2815,-2.2732,-2.2745,-2.2718,-2.2685,-2.2714,-2.2725,-2.2694,-2.2788,-2.2747,-2.2757,-2.2757,-2.2774,-2.279,-2.2804,-2.2622,-2.2621,-2.262,0,0,-2.3066,-2.3038,-2.3061,-2.3038,-2.3003,-2.2964,-2.297,-2.2921,-2.29,-2.2912,-2.285,-2.2852,-2.2843,-2.2822,-2.2811,-2.2906,-2.2859,-2.2906,-2.2976,-2.2997,-2.301,-2.3021,-2.3056,-2.3069,-2.2912,-2.2912,-2.2912,0,-2.3137,-2.3138,-2.3078,-2.3088,-2.3078,-2.3004,-2.3027,-2.3009,-2.2972,-2.2967,-2.2934,-2.2922,-2.2894,-2.2918,-2.2942,-2.2935,-2.2941,-2.291,-2.3013,-2.3023,-2.3033,-2.3065,-2.3079,-2.2918,-2.2917,-2.2917,-2.2916,0,-2.3228,-2.323,-2.3253,-2.322,-2.3212,-2.3229,-2.3174,-2.3173,-2.3135,-2.31,-2.3116,-2.3081,-2.3064,-2.3067,-2.3028,-2.3086,-2.3069,-2.3025,-2.2965,-2.3056,-2.3085,-2.3097,-2.2927,-2.2924,-2.2923,-2.2921,0,0,-2.3387,-2.3323,-2.3332,-2.3317,-2.3274,-2.3275,-2.329,-2.3274,-2.3276,-2.3254,-2.3266,-2.3261,-2.3221,-2.3209,-2.3168,-2.3187,-2.3266,-2.3141,-2.3139,-2.3166,-2.3329,-2.3362,-2.3377,-2.3235,-2.3237,-2.3239,-2.3332,0,-2.3477,-2.3498,-2.3446,-2.348,-2.3482,-2.3413,-2.3426,-2.3402,-2.3371,-2.337,-2.3335,-2.3334,-2.3281,-2.3273,-2.3289,-2.3253,-2.3298,-2.3246,-2.3246,-2.3247,-2.3256,-2.3392,-2.3426,-2.3516,-2.3343,-2.3345,-2.3346,0,-2.3585,-2.3569,-2.3604,-2.3561,-2.356,-2.3572,-2.3555,-2.3554,-2.3526,-2.3502,-2.349,-2.3443,-2.3456,-2.34,-2.3418,-2.3384,-2.3381,-2.3364,-2.3366,-2.3364,-2.3302,-2.3394,-2.3543,-2.3557,-2.3364,-2.3362,-2.3361,0,-2.3698,-2.3686,-2.3706,-2.3695,-2.3645,-2.3656,-2.3636,-2.3605,-2.36,-2.3585,-2.3581,-2.3569,-2.3562,-2.3554,-2.3506,-2.3469,-2.353,-2.3469,-2.3512,-2.3513,-2.3527,-2.3526,-2.3678,-2.3526,-2.3526,-2.3525,-2.3525,0,-2.3804,-2.3828,-2.3756,-2.3768,-2.3794,-2.3735,-2.3762,-2.3735,-2.371,-2.3716,-2.3656,-2.3664,-2.36,-2.3601,-2.3564,-2.3585,-2.3582,-2.3564,-2.3554,-2.357,-2.3572,-2.3566,-2.3559,-2.3529,-2.3528,-2.3528,-2.3527,0,-2.3934,-2.3887,-2.3904,-2.3856,-2.3845,-2.3866,-2.3826,-2.3836,-2.3802,-2.3811,-2.381,-2.3758,-2.3757,-2.3708,-2.3696,-2.3671,-2.3709,-2.3687,-2.3718,-2.3711,-2.3756,-2.3753,-2.3909,-2.3927,-2.3764,-2.3766,-2.3767,0,-2.4005,-2.4022,-2.3977,-2.3977,-2.396,-2.396,-2.3955,-2.3899,-2.3896,-2.3868,-2.3882,-2.3876,-2.3867,-2.3869,-2.383,-2.3822,-2.38,-2.3855,-2.3798,-2.3814,-2.3801,-2.3801,-2.3803,-2.3867,-2.3869,-2.3871,-2.3872,0,-2.4135,-2.4112,-2.4106,-2.4093,-2.4089,-2.4076,-2.4059,-2.4063,-2.4002,-2.4002,-2.4,-2.3994,-2.3983,-2.3979,-2.3964,-2.3944,-2.3899,-2.3891,-2.39,-2.3916,-2.3934,-2.3925,-2.3751,-2.3887,-2.3886,-2.3885,-2.3884,-2.3883,-2.4238,-2.425,-2.4221,-2.4217,-2.4199,-2.4186,-2.4194,-2.4162,-2.4159,-2.4145,-2.4113,-2.4117,-2.4092,-2.4067,-2.4052,-2.4055,-2.4027,-2.404,-2.4044,-2.4048,-2.4057,-2.3934,-2.4052,-2.4051,-2.4051,-2.4051,-2.405,0,-2.4365,-2.4344,-2.4341,-2.432,-2.4318,-2.4276,-2.4257,-2.4258,-2.4262,-2.4242,-2.4236,-2.4235,-2.4231,-2.4194,-2.4185,-2.4195,-2.4175,-2.4195,-2.4194,-2.419,-2.4082,-2.4075,-2.4212,-2.4212,-2.4212,-2.4212,-2.4212,-2.4212,-2.4431,-2.4451,-2.4425,-2.4436,-2.4414,-2.4417,-2.441,-2.4398,-2.4382,-2.4383,-2.438,-2.4356,-2.4329,-2.4319,-2.4314,-2.4304,-2.4304,-2.4332,-2.4314,-2.4213,-2.4198,-2.4183,-2.4176,-2.4332,-2.4332,-2.4422,-2.4423,-2.4423]},{"header":{"parameterUnit":"m.s-1","parameterCategory":1,"la1":30.2991,"la2":30.254,"lo1":-89.0895,"lo2":-89.0444,"dy":0.0017,"dx":0.0017,"nx":28,"ny":28,"refTime":"2024-06-22T03:00:00:Z","depth":0,"parameterNumber":3,"parameterNumberName":"V-component_of_WINDS"},"data":[0,0,0,0,0,0,0,0,0,0,0,0,0,0,0,0,0,0,0,0,0,0,0,0,0,0,0,0,0,0,0,0,0,0,0,0,0,0,0,0,0,0,0,0,0,0,0,0,0,0,0,0,0,0,0,0,0,0,3.279,3.279,0,3.2796,3.2796,3.2796,3.2822,3.2823,3.2824,3.2824,3.2825,3.2824,3.2824,0,0,0,0,0,0,0,0,0,0,0,0,0,3.2798,3.2797,3.279,3.279,3.279,3.2796,3.2796,3.2796,3.2822,3.2823,3.2824,3.2824,3.2825,3.2824,3.2824,0,0,0,0,0,0,0,0,0,0,0,0,0,3.2798,3.2797,3.279,3.2804,3.2805,3.2796,3.2796,3.2796,3.2822,3.2823,3.2824,3.2825,3.2825,3.2824,3.2823,3.2799,0,0,3.2821,3.282,0,0,0,0,0,0,0,0,3.2798,3.2797,3.2802,3.2803,3.2804,3.2809,3.2799,3.2797,3.2822,3.2815,3.2824,3.2825,3.2818,3.2818,3.2817,3.2799,3.2799,3.2821,3.282,3.282,3.282,0,0,0,0,0,0,0,3.2798,3.2797,3.2792,3.2802,3.2803,3.2809,3.281,3.2799,3.2811,3.2816,3.2818,3.2819,3.2819,3.2818,3.2817,3.2799,3.2821,3.282,3.2819,3.2819,3.2762,3.2761,0,0,0,0,0,0,3.2796,3.2797,3.2792,3.2792,3.2804,3.2808,3.2809,3.2807,3.2812,3.2813,3.2818,3.282,3.2819,3.2818,3.2817,3.2789,3.282,3.2819,3.2819,3.2763,3.2762,3.2761,0,0,0,0,0,0,3.2796,3.2796,3.2792,3.2795,3.2795,3.2807,3.2804,3.2806,3.2805,3.2813,3.2815,3.2814,3.282,3.2819,3.2804,3.279,3.2819,3.2818,3.2764,3.2763,3.2762,3.2733,0,0,0,0,0,0,3.2797,3.2796,3.2787,3.2795,3.2795,3.2779,3.2803,3.2806,3.2804,3.2807,3.281,3.2812,3.282,3.2805,3.2803,3.2789,3.2817,3.2766,3.2764,3.2762,3.2735,3.2731,3.2727,0,0,0,0,0,3.2797,3.2777,3.2786,3.2786,3.2785,3.2778,3.2778,3.279,3.2803,3.2794,3.2799,3.2811,3.2792,3.2803,3.2801,3.2787,3.2767,3.2764,3.2762,3.2737,3.2731,3.2727,0,0,0,0,0,0,3.2765,3.2778,3.2789,3.2772,3.2774,3.2783,3.2772,3.2784,3.2781,3.2783,3.2797,3.2797,3.2781,3.2782,3.2795,3.2764,3.2782,3.2779,3.2763,3.2758,3.2754,3.2753,3.2816,0,0,0,0,0,3.2756,3.2751,3.2763,3.2747,3.2748,3.276,3.2757,3.2767,3.2768,3.2769,3.2773,3.2773,3.2768,3.2763,3.2758,3.2736,3.2737,3.2725,3.2721,3.2718,3.2714,3.2703,3.2698,3.2754,3.2754,3.2754,0,0,3.2737,3.2744,3.274,3.274,3.2743,3.2737,3.276,3.2751,3.2746,3.2767,3.2754,3.2757,3.2759,3.274,3.2733,3.2741,3.27,3.2715,3.2712,3.2711,3.27,3.2695,3.269,3.2752,3.2753,3.2753,0,0,3.27,3.2705,3.2692,3.2695,3.27,3.2709,3.2706,3.2714,3.2717,3.2705,3.2721,3.2715,3.2704,3.2704,3.2703,3.2669,3.2679,3.2667,3.2644,3.2633,3.2628,3.2624,3.2611,3.2606,3.2664,3.2664,3.2664,0,3.2675,3.2667,3.2683,3.2675,3.2674,3.2696,3.2683,3.2684,3.2686,3.2685,3.2696,3.2684,3.2687,3.2669,3.2661,3.266,3.2656,3.2665,3.2628,3.2624,3.2621,3.2608,3.2603,3.2662,3.2662,3.2662,3.2663,0,3.2636,3.263,3.2619,3.2624,3.2622,3.2611,3.2625,3.2621,3.2632,3.2639,3.2626,3.2631,3.2627,3.2624,3.2633,3.2608,3.2613,3.2626,3.2643,3.2614,3.2602,3.2597,3.266,3.266,3.2661,3.2661,0,0,3.2575,3.2591,3.2587,3.2589,3.2598,3.2593,3.2583,3.2582,3.2578,3.258,3.2571,3.2563,3.2576,3.2574,3.2584,3.2574,3.2546,3.2588,3.2588,3.2579,3.2518,3.2507,3.2502,3.2555,3.2554,3.2553,3.2518,0,3.2539,3.2524,3.254,3.2521,3.2516,3.2538,3.2529,3.2532,3.254,3.2535,3.2543,3.2537,3.2554,3.2553,3.2545,3.2551,3.2534,3.2554,3.2545,3.2544,3.2542,3.2496,3.2484,3.2451,3.2513,3.2513,3.2512,0,3.2493,3.2495,3.2476,3.2488,3.2486,3.2478,3.2479,3.2475,3.248,3.2485,3.2485,3.2498,3.2488,3.2508,3.2494,3.2507,3.2505,3.2507,3.2507,3.2504,3.2525,3.2491,3.244,3.2434,3.2505,3.2506,3.2506,0,3.245,3.2447,3.2436,3.2438,3.2451,3.2445,3.2449,3.2455,3.2454,3.2455,3.2454,3.2453,3.2451,3.245,3.2461,3.2474,3.2446,3.2466,3.2449,3.2449,3.244,3.244,3.2386,3.2441,3.2441,3.2441,3.2441,0,3.2406,3.2393,3.2417,3.241,3.2397,3.2415,3.2401,3.2408,3.2414,3.2407,3.2426,3.242,3.2437,3.2432,3.2441,3.2428,3.2427,3.2431,3.2433,3.2428,3.2427,3.2425,3.2427,3.244,3.244,3.244,3.2441,0,3.2353,3.2369,3.2359,3.2373,3.2376,3.2366,3.2377,3.237,3.238,3.2372,3.2371,3.2386,3.2381,3.2394,3.239,3.2397,3.2378,3.2384,3.2376,3.2378,3.236,3.2361,3.2301,3.2294,3.2355,3.2354,3.2354,0,3.2324,3.2315,3.2329,3.2327,3.2332,3.2329,3.2328,3.2347,3.2345,3.2351,3.2344,3.2342,3.234,3.2332,3.2341,3.2339,3.2345,3.2324,3.2344,3.234,3.2343,3.2342,3.2341,3.2319,3.2318,3.2318,3.2317,0,3.2268,3.2277,3.2277,3.228,3.228,3.2282,3.2286,3.2283,3.2303,3.23,3.2297,3.2296,3.2295,3.2291,3.2292,3.2295,3.2309,3.2311,3.2307,3.2301,3.2296,3.2297,3.2363,3.2312,3.2312,3.2313,3.2313,3.2313,3.2226,3.2219,3.2229,3.2228,3.2233,3.2237,3.2232,3.2242,3.224,3.2242,3.2253,3.2247,3.2253,3.2256,3.2258,3.2253,3.2263,3.2257,3.2255,3.2252,3.2249,3.2299,3.2254,3.2254,3.2254,3.2254,3.2254,0,3.217,3.2178,3.2178,3.2184,3.2183,3.2199,3.2205,3.2202,3.2198,3.2204,3.2203,3.22,3.2198,3.2208,3.2207,3.2201,3.2207,3.22,3.2199,3.22,3.2241,3.2245,3.2195,3.2195,3.2195,3.2195,3.2195,3.2195,3.2141,3.2131,3.2142,3.2135,3.2143,3.2139,3.2141,3.2144,3.2149,3.2145,3.2144,3.2152,3.2159,3.2159,3.2157,3.2161,3.2158,3.2149,3.2153,3.2191,3.2197,3.2202,3.2206,3.2149,3.2148,3.2112,3.2112,3.2112]}]]